Location: Ellerstadt
(49.4644°N, 8.2615°E)
Time: 07:33:33
(UTC+00:00)

Altair - Pass Details

Date: 14 June 2021
Orbit: 1502 x 1682 km, 47.2° (Epoch: 03 August)

Event Time Altitude Azimuth Distance (km) Brightness Sun altitude
Rises 22:03:36 0° 286° (WNW) 4,900 10.7 -14.9°
Reaches altitude 10° 22:08:32 10° 266° (W) 3,930 9.8 -15.1°
Maximum altitude 22:13:38 15° 235° (SW) 3,526 9.2 -15.4°
Drops below altitude 10° 22:18:45 10° 204° (SSW) 3,937 9.2 -15.6°
Enters shadow 22:19:16 - 202° (SSW) 4,017 9.2 -15.7°
